| time (UTC) | temp F | wind direction | speed MPH | gust MPH | rain 1hr in | rain 24hr in | rain mn in | humidity % | barometer mb |
| 20260831225311 | 74 | 80 | 0.0 | 0.0 | 0.00 | 0.00 | 0.00 | 82 | 1014.2 |
| 20260831224811 | 74 | 79 | 0.0 | 1.0 | 0.00 | 0.00 | 0.00 | 82 | 1014.2 |
| 20260831224311 | 74 | 79 | 0.0 | 1.0 | 0.00 | 0.00 | 0.00 | 81 | 1014.2 |
| 20260831223811 | 74 | 79 | 0.0 | 0.0 | 0.00 | 0.00 | 0.00 | 81 | 1014.1 |
| 20260831223310 | 74 | 80 | 0.0 | 2.0 | 0.00 | 0.00 | 0.00 | 81 | 1014.0 |
| 20260831222811 | 74 | 79 | 0.0 | 2.0 | 0.00 | 0.00 | 0.00 | 81 | 1014.0 |
| 20260831222311 | 74 | 80 | 0.0 | 1.0 | 0.00 | 0.00 | 0.00 | 81 | 1013.9 |
| 20260831221811 | 74 | 80 | 0.0 | 1.0 | 0.00 | 0.00 | 0.00 | 80 | 1013.8 |
| 20260831221313 | 74 | 80 | 0.0 | 2.0 | 0.00 | 0.00 | 0.00 | 80 | 1013.8 |
| 20260831220811 | 74 | 80 | 1.0 | 4.0 | 0.00 | 0.00 | 0.00 | 80 | 1013.9 |
| 20260831220311 | 74 | 80 | 1.0 | 4.0 | 0.00 | 0.00 | 0.00 | 80 | 1013.9 |
| 20260831215810 | 75 | 75 | 0.0 | 0.0 | 0.00 | 0.00 | 0.00 | 79 | 1014.0 |
| 20260831214808 | 75 | 169 | 0.0 | 0.0 | 0.00 | 0.00 | 0.00 | 78 | 1013.8 |
| 20260831214308 | 75 | 169 | 0.0 | 0.0 | 0.00 | 0.00 | 0.00 | 78 | 1013.8 |
| 20260831213805 | 75 | 170 | 0.0 | 0.0 | 0.00 | 0.00 | 0.00 | 78 | 1013.8 |
| 20260831213304 | 75 | 170 | 0.0 | 0.0 | 0.00 | 0.00 | 0.00 | 77 | 1013.8 |
| 20260831212803 | 76 | 182 | 0.0 | 0.0 | 0.00 | 0.00 | 0.00 | 77 | 1013.8 |
| 20260831211801 | 76 | 196 | 0.0 | 0.0 | 0.00 | 0.00 | 0.00 | 76 | 1013.6 |
| 20260831210802 | 76 | 196 | 0.0 | 0.0 | 0.00 | 0.00 | 0.00 | 76 | 1013.6 |
| 20260831205802 | 76 | 203 | 0.0 | 0.0 | 0.00 | 0.00 | 0.00 | 75 | 1013.4 |
| 20260831205305 | 76 | 203 | 0.0 | 0.0 | 0.00 | 0.00 | 0.00 | 75 | 1013.4 |
| 20260831204802 | 76 | 203 | 0.0 | 0.0 | 0.00 | 0.00 | 0.00 | 74 | 1013.3 |
| 20260831204302 | 77 | 203 | 0.0 | 0.0 | 0.00 | 0.00 | 0.00 | 74 | 1013.4 |
| 20260831203802 | 77 | 203 | 0.0 | 0.0 | 0.00 | 0.00 | 0.00 | 74 | 1013.4 |
| 20260831203301 | 77 | 203 | 0.0 | 0.0 | 0.00 | 0.00 | 0.00 | 74 | 1013.3 |
| 20260831202306 | 77 | 203 | 0.0 | 0.0 | 0.00 | 0.00 | 0.00 | 73 | 1013.3 |
| 20260831201802 | 78 | 203 | 0.0 | 0.0 | 0.00 | 0.00 | 0.00 | 73 | 1013.2 |
| 20260831201301 | 78 | 203 | 0.0 | 0.0 | 0.00 | 0.00 | 0.00 | 72 | 1013.1 |
| 20260831200802 | 78 | 203 | 0.0 | 0.0 | 0.00 | 0.00 | 0.00 | 72 | 1013.1 |
| 20260831200302 | 78 | 203 | 0.0 | 0.0 | 0.00 | 0.00 | 0.00 | 72 | 1013.2 |
| 20260831195802 | 78 | 203 | 0.0 | 0.0 | 0.00 | 0.00 | 0.00 | 71 | 1013.1 |
| 20260831195302 | 78 | 202 | 0.0 | 3.0 | 0.00 | 0.00 | 0.00 | 71 | 1013.1 |
| 20260831194802 | 78 | 231 | 1.0 | 6.0 | 0.00 | 0.00 | 0.00 | 71 | 1013.0 |
| 20260831194302 | 78 | 205 | 1.0 | 6.0 | 0.00 | 0.00 | 0.00 | 70 | 1012.9 |
| 20260831193302 | 79 | 200 | 1.0 | 9.0 | 0.00 | 0.00 | 0.00 | 70 | 1012.8 |
| 20260831192805 | 79 | 205 | 2.0 | 9.0 | 0.00 | 0.00 | 0.00 | 69 | 1012.8 |
| 20260831192305 | 79 | 197 | 1.0 | 9.0 | 0.00 | 0.00 | 0.00 | 69 | 1012.7 |
| 20260831191803 | 79 | 197 | 0.0 | 6.0 | 0.00 | 0.00 | 0.00 | 68 | 1012.7 |
| 20260831191302 | 80 | 205 | 0.0 | 1.0 | 0.00 | 0.00 | 0.00 | 68 | 1012.7 |
| 20260831190804 | 80 | 168 | 0.0 | 3.0 | 0.00 | 0.00 | 0.00 | 67 | 1012.7 |
| 20260831190302 | 80 | 189 | 1.0 | 4.0 | 0.00 | 0.00 | 0.00 | 67 | 1012.7 |
| 20260831185802 | 80 | 196 | 0.0 | 4.0 | 0.00 | 0.00 | 0.00 | 66 | 1012.7 |
| 20260831185302 | 80 | 227 | 0.0 | 4.0 | 0.00 | 0.00 | 0.00 | 66 | 1012.6 |
| 20260831184802 | 81 | 195 | 1.0 | 5.0 | 0.00 | 0.00 | 0.00 | 66 | 1012.5 |
| 20260831183802 | 81 | 196 | 1.0 | 8.0 | 0.00 | 0.00 | 0.00 | 65 | 1012.4 |
| 20260831183304 | 81 | 181 | 0.0 | 4.0 | 0.00 | 0.00 | 0.00 | 65 | 1012.4 |
| 20260831182802 | 81 | 196 | 1.0 | 3.0 | 0.00 | 0.00 | 0.00 | 65 | 1012.3 |
| 20260831182300 | 82 | 215 | 0.0 | 0.0 | 0.00 | 0.00 | 0.00 | 64 | 1012.2 |
| 20260831181824 | 82 | 204 | 0.0 | 4.0 | 0.00 | 0.00 | 0.00 | 64 | 1012.2 |
| 20260831181321 | 82 | 150 | 0.0 | 4.0 | 0.00 | 0.00 | 0.00 | 63 | 1012.1 |
| 20260831180821 | 83 | 175 | 0.0 | 4.0 | 0.00 | 0.00 | 0.00 | 62 | 1012.1 |
| 20260831180319 | 83 | 182 | 0.0 | 4.0 | 0.00 | 0.00 | 0.00 | 61 | 1012.1 |
| 20260831175819 | 84 | 164 | 0.0 | 0.0 | 0.00 | 0.00 | 0.00 | 61 | 1012.1 |
| 20260831175317 | 84 | 192 | 0.0 | 0.0 | 0.00 | 0.00 | 0.00 | 60 | 1012.0 |
| 20260831174815 | 85 | 202 | 0.0 | 5.0 | 0.00 | 0.00 | 0.00 | 59 | 1012.0 |
| 20260831174314 | 85 | 180 | 0.0 | 5.0 | 0.00 | 0.00 | 0.00 | 57 | 1012.1 |
| 20260831173813 | 86 | 192 | 0.0 | 3.0 | 0.00 | 0.00 | 0.00 | 56 | 1012.1 |
| 20260831172804 | 87 | 191 | 0.0 | 5.0 | 0.00 | 0.00 | 0.00 | 54 | 1012.1 |
| 20260831172308 | 88 | 193 | 0.0 | 0.0 | 0.00 | 0.00 | 0.00 | 53 | 1012.1 |
| 20260831171804 | 89 | 186 | 0.0 | 5.0 | 0.00 | 0.00 | 0.00 | 53 | 1012.2 |
| 20260831171303 | 90 | 182 | 0.0 | 5.0 | 0.00 | 0.00 | 0.00 | 52 | 1012.2 |
| 20260831170804 | 90 | 147 | 0.0 | 5.0 | 0.00 | 0.00 | 0.00 | 51 | 1012.2 |
| 20260831170306 | 91 | 177 | 0.0 | 4.0 | 0.00 | 0.00 | 0.00 | 49 | 1012.2 |
| 20260831165802 | 92 | 169 | 0.0 | 4.0 | 0.00 | 0.00 | 0.00 | 46 | 1012.2 |
| 20260831165305 | 92 | 218 | 0.0 | 0.0 | 0.00 | 0.00 | 0.00 | 42 | 1012.2 |
| 20260831164803 | 92 | 232 | 0.0 | 3.0 | 0.00 | 0.00 | 0.00 | 42 | 1012.2 |
| 20260831164303 | 92 | 232 | 0.0 | 5.0 | 0.00 | 0.00 | 0.00 | 42 | 1012.2 |
| 20260831163303 | 92 | 226 | 0.0 | 4.0 | 0.00 | 0.00 | 0.00 | 42 | 1012.3 |
| 20260831162802 | 92 | 246 | 0.0 | 4.0 | 0.00 | 0.00 | 0.00 | 41 | 1012.3 |
| 20260831162305 | 91 | 241 | 0.0 | 4.0 | 0.00 | 0.00 | 0.00 | 42 | 1012.4 |
| 20260831161803 | 91 | 248 | 1.0 | 4.0 | 0.00 | 0.00 | 0.00 | 41 | 1012.5 |
| 20260831160304 | 92 | 229 | 1.0 | 7.0 | 0.00 | 0.00 | 0.00 | 41 | 1012.5 |
| 20260831155157 | 93 | 212 | 1.0 | 6.0 | 0.00 | 0.00 | 0.00 | 41 | 1012.5 |
| 20260831154651 | 93 | 201 | 2.0 | 6.0 | 0.00 | 0.00 | 0.00 | 41 | 1012.5 |
| 20260831154152 | 93 | 237 | 1.0 | 6.0 | 0.00 | 0.00 | 0.00 | 41 | 1012.5 |
| 20260831153650 | 93 | 186 | 1.0 | 7.0 | 0.00 | 0.00 | 0.00 | 40 | 1012.6 |
| 20260831153149 | 93 | 239 | 2.0 | 7.0 | 0.00 | 0.00 | 0.00 | 40 | 1012.6 |
| 20260831152650 | 94 | 238 | 1.0 | 6.0 | 0.00 | 0.00 | 0.00 | 41 | 1012.6 |
| 20260831152149 | 94 | 211 | 1.0 | 5.0 | 0.00 | 0.00 | 0.00 | 41 | 1012.6 |
| 20260831151650 | 93 | 210 | 2.0 | 7.0 | 0.00 | 0.00 | 0.00 | 41 | 1012.7 |
| 20260831151151 | 93 | 197 | 1.0 | 7.0 | 0.00 | 0.00 | 0.00 | 42 | 1012.7 |
| 20260831150649 | 93 | 204 | 2.0 | 7.0 | 0.00 | 0.00 | 0.00 | 42 | 1012.8 |
| 20260831145646 | 92 | 209 | 2.0 | 6.0 | 0.00 | 0.00 | 0.00 | 42 | 1012.8 |
| 20260831145143 | 92 | 235 | 2.0 | 5.0 | 0.00 | 0.00 | 0.00 | 40 | 1012.8 |
| 20260831144641 | 93 | 248 | 1.0 | 8.0 | 0.00 | 0.00 | 0.00 | 41 | 1012.9 |
| 20260831144141 | 92 | 227 | 1.0 | 8.0 | 0.00 | 0.00 | 0.00 | 42 | 1012.9 |
| 20260831143641 | 92 | 195 | 1.0 | 6.0 | 0.00 | 0.00 | 0.00 | 42 | 1012.9 |
| 20260831143142 | 92 | 252 | 2.0 | 14.0 | 0.00 | 0.00 | 0.00 | 41 | 1012.9 |
| 20260831142641 | 92 | 259 | 2.0 | 14.0 | 0.00 | 0.00 | 0.00 | 40 | 1012.9 |
| 20260831142141 | 92 | 244 | 2.0 | 8.0 | 0.00 | 0.00 | 0.00 | 41 | 1012.9 |
| 20260831141640 | 92 | 207 | 2.0 | 8.0 | 0.00 | 0.00 | 0.00 | 42 | 1012.9 |
| 20260831141139 | 91 | 241 | 3.0 | 8.0 | 0.00 | 0.00 | 0.00 | 43 | 1012.9 |
| 20260831140637 | 92 | 284 | 3.0 | 11.0 | 0.00 | 0.00 | 0.00 | 40 | 1012.9 |
| 20260831135637 | 92 | 355 | 1.0 | 8.0 | 0.00 | 0.00 | 0.00 | 42 | 1013.0 |
| 20260831135137 | 91 | 266 | 2.0 | 8.0 | 0.00 | 0.00 | 0.00 | 41 | 1013.0 |
| 20260831133637 | 91 | 229 | 0.0 | 6.0 | 0.00 | 0.00 | 0.00 | 43 | 1013.0 |
| 20260831133136 | 91 | 257 | 1.0 | 9.0 | 0.00 | 0.00 | 0.00 | 42 | 1013.0 |
| 20260831132638 | 92 | 263 | 1.0 | 9.0 | 0.00 | 0.00 | 0.00 | 41 | 1013.1 |
| 20260831132137 | 92 | 213 | 1.0 | 6.0 | 0.00 | 0.00 | 0.00 | 41 | 1013.1 |
| 20260831131634 | 92 | 219 | 1.0 | 0.0 | 0.00 | 0.00 | 0.00 | 43 | 1013.2 |
| 20260831131202 | 91 | 205 | 0.0 | 6.0 | 0.00 | 0.00 | 0.00 | 43 | 1013.2 |
| 20260831130702 | 91 | 252 | 2.0 | 10.0 | 0.00 | 0.00 | 0.00 | 41 | 1013.3 |
| 20260831125701 | 91 | 227 | 2.0 | 9.0 | 0.00 | 0.00 | 0.00 | 42 | 1013.4 |
| 20260831124702 | 92 | 226 | 3.0 | 10.0 | 0.00 | 0.00 | 0.00 | 42 | 1013.6 |
| 20260831124202 | 91 | 220 | 3.0 | 10.0 | 0.00 | 0.00 | 0.00 | 43 | 1013.6 |
| 20260831123701 | 91 | 196 | 2.0 | 9.0 | 0.00 | 0.00 | 0.00 | 43 | 1013.6 |
| 20260831123201 | 91 | 246 | 1.0 | 8.0 | 0.00 | 0.00 | 0.00 | 42 | 1013.7 |
| 20260831122201 | 90 | 296 | 1.0 | 6.0 | 0.00 | 0.00 | 0.00 | 41 | 1013.6 |
| 20260831121702 | 91 | 248 | 2.0 | 10.0 | 0.00 | 0.00 | 0.00 | 41 | 1013.7 |
| 20260831121201 | 91 | 197 | 2.0 | 10.0 | 0.00 | 0.00 | 0.00 | 42 | 1013.7 |
| 20260831120702 | 90 | 211 | 1.0 | 7.0 | 0.00 | 0.00 | 0.00 | 43 | 1013.7 |
| 20260831120201 | 89 | 189 | 1.0 | 7.0 | 0.00 | 0.00 | 0.00 | 44 | 1013.7 |
| 20260831115701 | 89 | 248 | 1.0 | 7.0 | 0.00 | 0.00 | 0.00 | 44 | 1013.7 |
| 20260831114701 | 89 | 266 | 0.0 | 7.0 | 0.00 | 0.00 | 0.00 | 46 | 1013.9 |
| 20260831114200 | 88 | 180 | 0.0 | 7.0 | 0.00 | 0.00 | 0.00 | 46 | 1013.9 |
| 20260831113701 | 88 | 297 | 1.0 | 8.0 | 0.00 | 0.00 | 0.00 | 44 | 1014.0 |
| 20260831113201 | 89 | 267 | 1.0 | 8.0 | 0.00 | 0.00 | 0.00 | 45 | 1014.0 |
| 20260831112701 | 89 | 233 | 0.0 | 4.0 | 0.00 | 0.00 | 0.00 | 45 | 1014.1 |
| 20260831112201 | 88 | 205 | 0.0 | 4.0 | 0.00 | 0.00 | 0.00 | 47 | 1014.1 |
| 20260831111201 | 89 | 297 | 2.0 | 7.0 | 0.00 | 0.00 | 0.00 | 46 | 1014.2 |
| 20260831110701 | 88 | 158 | 2.0 | 7.0 | 0.00 | 0.00 | 0.00 | 46 | 1014.1 |
| 20260831110201 | 88 | 144 | 2.0 | 6.0 | 0.00 | 0.00 | 0.00 | 47 | 1014.2 |
| 20260831105701 | 87 | 219 | 1.0 | 7.0 | 0.00 | 0.00 | 0.00 | 47 | 1014.2 |
| 20260831105201 | 87 | 202 | 1.0 | 8.0 | 0.00 | 0.00 | 0.00 | 48 | 1014.3 |
| 20260831104701 | 87 | 208 | 1.0 | 8.0 | 0.00 | 0.00 | 0.00 | 47 | 1014.3 |
| 20260831104201 | 88 | 225 | 1.0 | 6.0 | 0.00 | 0.00 | 0.00 | 47 | 1014.3 |
| 20260831103701 | 88 | 225 | 1.0 | 5.0 | 0.00 | 0.00 | 0.00 | 48 | 1014.3 |
| 20260831102201 | 87 | 242 | 1.0 | 8.0 | 0.00 | 0.00 | 0.00 | 49 | 1014.4 |
| 20260831101701 | 87 | 226 | 0.0 | 7.0 | 0.00 | 0.00 | 0.00 | 51 | 1014.4 |
| 20260831101201 | 86 | 191 | 0.0 | 5.0 | 0.00 | 0.00 | 0.00 | 51 | 1014.4 |
| 20260831100701 | 86 | 223 | 0.0 | 0.0 | 0.00 | 0.00 | 0.00 | 52 | 1014.5 |
| 20260831100201 | 86 | 218 | 1.0 | 6.0 | 0.00 | 0.00 | 0.00 | 51 | 1014.5 |
| 20260831095702 | 86 | 229 | 1.0 | 6.0 | 0.00 | 0.00 | 0.00 | 53 | 1014.5 |
| 20260831095202 | 85 | 200 | 0.0 | 4.0 | 0.00 | 0.00 | 0.00 | 53 | 1014.5 |
| 20260831094702 | 85 | 166 | 0.0 | 4.0 | 0.00 | 0.00 | 0.00 | 53 | 1014.5 |
| 20260831094201 | 84 | 218 | 0.0 | 7.0 | 0.00 | 0.00 | 0.00 | 53 | 1014.5 |
| 20260831093701 | 84 | 222 | 0.0 | 7.0 | 0.00 | 0.00 | 0.00 | 53 | 1014.5 |
| 20260831092701 | 84 | 306 | 0.0 | 7.0 | 0.00 | 0.00 | 0.00 | 53 | 1014.7 |
| 20260831092201 | 84 | 252 | 0.0 | 7.0 | 0.00 | 0.00 | 0.00 | 53 | 1014.7 |
| 20260831091700 | 84 | 244 | 0.0 | 0.0 | 0.00 | 0.00 | 0.00 | 54 | 1014.7 |
| 20260831091201 | 84 | 231 | 0.0 | 0.0 | 0.00 | 0.00 | 0.00 | 54 | 1014.7 |
| 20260831090700 | 84 | 201 | 0.0 | 0.0 | 0.00 | 0.00 | 0.00 | 54 | 1014.7 |
| 20260831085701 | 83 | 183 | 0.0 | 0.0 | 0.00 | 0.00 | 0.00 | 56 | 1014.7 |
| 20260831085158 | 82 | 218 | 0.0 | 0.0 | 0.00 | 0.00 | 0.00 | 56 | 1014.7 |
| 20260831084653 | 82 | 355 | 0.0 | 0.0 | 0.00 | 0.00 | 0.00 | 56 | 1014.7 |
| 20260831084146 | 82 | 266 | 0.0 | 0.0 | 0.00 | 0.00 | 0.00 | 56 | 1014.7 |
| 20260831083647 | 82 | 265 | 0.0 | 0.0 | 0.00 | 0.00 | 0.00 | 56 | 1014.7 |
| 20260831082645 | 82 | 25 | 0.0 | 0.0 | 0.00 | 0.00 | 0.00 | 56 | 1014.7 |
| 20260831081644 | 82 | 344 | 0.0 | 0.0 | 0.00 | 0.00 | 0.00 | 57 | 1014.7 |
| 20260831081141 | 81 | 344 | 0.0 | 0.0 | 0.00 | 0.00 | 0.00 | 57 | 1014.5 |
| 20260831080639 | 81 | 343 | 0.0 | 0.0 | 0.00 | 0.00 | 0.00 | 59 | 1014.5 |
| 20260831080139 | 80 | 343 | 0.0 | 0.0 | 0.00 | 0.00 | 0.00 | 60 | 1014.5 |
| 20260831075639 | 80 | 341 | 0.0 | 0.0 | 0.00 | 0.00 | 0.00 | 60 | 1014.4 |
| 20260831075137 | 79 | 340 | 0.0 | 0.0 | 0.00 | 0.00 | 0.00 | 61 | 1014.4 |
| 20260831074635 | 79 | 340 | 0.0 | 0.0 | 0.00 | 0.00 | 0.00 | 62 | 1014.4 |
| 20260831074133 | 79 | 340 | 0.0 | 0.0 | 0.00 | 0.00 | 0.00 | 61 | 1014.4 |
| 20260831073630 | 78 | 340 | 0.0 | 0.0 | 0.00 | 0.00 | 0.00 | 62 | 1014.3 |
| 20260831073133 | 78 | 340 | 0.0 | 0.0 | 0.00 | 0.00 | 0.00 | 63 | 1014.2 |
| 20260831072629 | 78 | 340 | 0.0 | 0.0 | 0.00 | 0.00 | 0.00 | 62 | 1014.2 |
| 20260831071629 | 77 | 289 | 0.0 | 0.0 | 0.00 | 0.00 | 0.00 | 63 | 1014.3 |
| 20260831071129 | 77 | 289 | 0.0 | 0.0 | 0.00 | 0.00 | 0.00 | 63 | 1014.3 |
| 20260831070127 | 76 | 288 | 0.0 | 0.0 | 0.00 | 0.00 | 0.00 | 65 | 1014.2 |
| 20260831065621 | 76 | 288 | 0.0 | 0.0 | 0.00 | 0.00 | 0.00 | 65 | 1014.3 |
| 20260831065114 | 76 | 288 | 0.0 | 0.0 | 0.00 | 0.00 | 0.00 | 65 | 1014.1 |
| 20260831064109 | 75 | 288 | 0.0 | 0.0 | 0.00 | 0.00 | 0.00 | 66 | 1014.1 |
| 20260831063611 | 75 | 285 | 0.0 | 0.0 | 0.00 | 0.00 | 0.00 | 67 | 1014.1 |
| 20260831063106 | 74 | 285 | 0.0 | 0.0 | 0.00 | 0.00 | 0.00 | 68 | 1014.1 |
| 20260831062607 | 74 | 284 | 0.0 | 0.0 | 0.00 | 0.00 | 0.00 | 68 | 1014.1 |
| 20260831062106 | 74 | 284 | 0.0 | 0.0 | 0.00 | 0.00 | 0.00 | 68 | 1014.2 |
| 20260831061607 | 73 | 285 | 0.0 | 0.0 | 0.00 | 0.00 | 0.00 | 69 | 1014.2 |
| 20260831061106 | 73 | 284 | 0.0 | 0.0 | 0.00 | 0.00 | 0.00 | 69 | 1014.2 |
| 20260831060108 | 72 | 284 | 0.0 | 0.0 | 0.00 | 0.00 | 0.00 | 70 | 1014.1 |
| 20260831055102 | 72 | 284 | 0.0 | 0.0 | 0.00 | 0.00 | 0.00 | 71 | 1014.1 |
| 20260831054602 | 72 | 284 | 0.0 | 0.0 | 0.00 | 0.00 | 0.00 | 72 | 1014.0 |
| 20260831054102 | 71 | 284 | 0.0 | 0.0 | 0.00 | 0.00 | 0.00 | 72 | 1014.0 |
| 20260831053103 | 71 | 284 | 0.0 | 0.0 | 0.00 | 0.00 | 0.00 | 73 | 1014.0 |
| 20260831052606 | 71 | 284 | 0.0 | 0.0 | 0.00 | 0.00 | 0.00 | 73 | 1013.9 |
| 20260831052103 | 70 | 284 | 0.0 | 0.0 | 0.00 | 0.00 | 0.00 | 73 | 1013.8 |
| 20260831051603 | 70 | 284 | 0.0 | 0.0 | 0.00 | 0.00 | 0.00 | 73 | 1013.8 |
| 20260831051102 | 70 | 284 | 0.0 | 0.0 | 0.00 | 0.00 | 0.00 | 74 | 1013.8 |
| 20260831050602 | 70 | 284 | 0.0 | 0.0 | 0.00 | 0.00 | 0.00 | 74 | 1013.7 |
| 20260831045603 | 70 | 284 | 0.0 | 0.0 | 0.00 | 0.00 | 0.00 | 74 | 1013.6 |
| 20260831045101 | 70 | 284 | 0.0 | 0.0 | 0.00 | 0.00 | 0.00 | 74 | 1013.6 |
| 20260831044601 | 70 | 284 | 0.0 | 0.0 | 0.00 | 0.00 | 0.00 | 73 | 1013.6 |
| 20260831044101 | 70 | 284 | 0.0 | 0.0 | 0.00 | 0.00 | 0.00 | 73 | 1013.7 |
| 20260831043601 | 70 | 284 | 0.0 | 0.0 | 0.00 | 0.00 | 0.00 | 73 | 1013.6 |
| 20260831043101 | 70 | 284 | 0.0 | 0.0 | 0.00 | 0.00 | 0.00 | 73 | 1013.6 |
| 20260831042600 | 70 | 284 | 0.0 | 0.0 | 0.00 | 0.00 | 0.00 | 73 | 1013.6 |
| 20260831042102 | 70 | 284 | 0.0 | 0.0 | 0.00 | 0.00 | 0.00 | 73 | 1013.6 |
| 20260831035556 | 70 | 284 | 0.0 | 0.0 | 0.00 | 0.00 | 0.00 | 75 | 1013.5 |
| 20260831034544 | 70 | 269 | 0.0 | 0.0 | 0.00 | 0.00 | 0.00 | 76 | 1013.6 |
| 20260831034038 | 70 | 209 | 0.0 | 0.0 | 0.00 | 0.00 | 0.00 | 76 | 1013.6 |
| 20260831033038 | 70 | 205 | 0.0 | 0.0 | 0.00 | 0.00 | 0.00 | 77 | 1013.6 |
| 20260831032541 | 70 | 205 | 0.0 | 0.0 | 0.00 | 0.00 | 0.00 | 78 | 1013.7 |
| 20260831032036 | 70 | 205 | 0.0 | 0.0 | 0.00 | 0.00 | 0.00 | 79 | 1013.8 |
| 20260831031535 | 69 | 205 | 0.0 | 0.0 | 0.00 | 0.00 | 0.00 | 79 | 1013.9 |
| 20260831031032 | 69 | 205 | 0.0 | 0.0 | 0.00 | 0.00 | 0.00 | 79 | 1013.9 |
| 20260831030032 | 69 | 205 | 0.0 | 0.0 | 0.00 | 0.00 | 0.00 | 80 | 1014.0 |
| 20260831025530 | 69 | 205 | 0.0 | 0.0 | 0.00 | 0.00 | 0.00 | 80 | 1014.0 |
| 20260831025029 | 69 | 205 | 0.0 | 0.0 | 0.00 | 0.00 | 0.00 | 80 | 1014.0 |
| 20260831024529 | 70 | 205 | 0.0 | 0.0 | 0.00 | 0.00 | 0.00 | 79 | 1014.0 |
| 20260831024029 | 70 | 205 | 0.0 | 0.0 | 0.00 | 0.00 | 0.00 | 79 | 1014.0 |
| 20260831023529 | 70 | 205 | 0.0 | 0.0 | 0.00 | 0.00 | 0.00 | 79 | 1013.9 |
| 20260831022529 | 70 | 205 | 0.0 | 0.0 | 0.00 | 0.00 | 0.00 | 78 | 1013.8 |
| 20260831022028 | 70 | 205 | 0.0 | 0.0 | 0.00 | 0.00 | 0.00 | 78 | 1013.9 |
| 20260831021529 | 70 | 205 | 0.0 | 0.0 | 0.00 | 0.00 | 0.00 | 78 | 1014.0 |
| 20260831021029 | 70 | 205 | 0.0 | 0.0 | 0.00 | 0.00 | 0.00 | 78 | 1013.9 |
| 20260831020529 | 70 | 205 | 0.0 | 0.0 | 0.00 | 0.00 | 0.00 | 78 | 1014.0 |
| 20260831020028 | 70 | 205 | 0.0 | 0.0 | 0.00 | 0.00 | 0.00 | 78 | 1014.0 |
| 20260831015529 | 70 | 205 | 0.0 | 0.0 | 0.00 | 0.00 | 0.00 | 78 | 1014.0 |
| 20260831015029 | 70 | 205 | 0.0 | 0.0 | 0.00 | 0.00 | 0.00 | 77 | 1014.0 |
| 20260831014529 | 70 | 205 | 0.0 | 0.0 | 0.00 | 0.00 | 0.00 | 77 | 1014.0 |
| 20260831014028 | 70 | 205 | 0.0 | 0.0 | 0.00 | 0.00 | 0.00 | 77 | 1014.0 |
| 20260831013529 | 70 | 205 | 0.0 | 0.0 | 0.00 | 0.00 | 0.00 | 77 | 1014.0 |
| 20260831013029 | 71 | 205 | 0.0 | 0.0 | 0.00 | 0.00 | 0.00 | 77 | 1014.0 |
| 20260831012529 | 71 | 205 | 0.0 | 0.0 | 0.00 | 0.00 | 0.00 | 77 | 1014.0 |
| 20260831012030 | 71 | 205 | 0.0 | 0.0 | 0.00 | 0.00 | 0.00 | 77 | 1014.0 |
| 20260831011530 | 71 | 205 | 0.0 | 0.0 | 0.00 | 0.00 | 0.00 | 77 | 1014.1 |
| 20260831011030 | 71 | 205 | 0.0 | 0.0 | 0.00 | 0.00 | 0.00 | 77 | 1014.1 |
| 20260831010529 | 71 | 205 | 0.0 | 0.0 | 0.00 | 0.00 | 0.00 | 77 | 1014.1 |
| 20260831005529 | 71 | 205 | 0.0 | 0.0 | 0.00 | 0.00 | 0.00 | 77 | 1014.1 |
| 20260831005028 | 71 | 205 | 0.0 | 0.0 | 0.00 | 0.00 | 0.00 | 77 | 1014.1 |
| 20260831004528 | 71 | 205 | 0.0 | 0.0 | 0.00 | 0.00 | 0.00 | 77 | 1014.1 |
| 20260831004021 | 71 | 205 | 0.0 | 0.0 | 0.00 | 0.00 | 0.00 | 77 | 1014.1 |
| 20260831003515 | 71 | 205 | 0.0 | 0.0 | 0.00 | 0.00 | 0.00 | 77 | 1014.1 |
| 20260831003010 | 71 | 205 | 0.0 | 0.0 | 0.00 | 0.00 | 0.00 | 77 | 1014.1 |
| 20260831002504 | 71 | 205 | 0.0 | 0.0 | 0.00 | 0.00 | 0.00 | 77 | 1014.1 |
| 20260831002004 | 71 | 205 | 0.0 | 0.0 | 0.00 | 0.00 | 0.00 | 77 | 1014.1 |
| 20260831001502 | 71 | 205 | 0.0 | 0.0 | 0.00 | 0.00 | 0.00 | 77 | 1014.2 |
| 20260831001002 | 72 | 205 | 0.0 | 0.0 | 0.00 | 0.00 | 0.00 | 77 | 1014.2 |
| 20260831000501 | 72 | 205 | 0.0 | 0.0 | 0.00 | 0.00 | 0.00 | 77 | 1014.3 |
| 20260831000002 | 72 | 205 | 0.0 | 0.0 | 0.00 | 0.00 | 0.00 | 77 | 1014.3 |
| 20260830235502 | 72 | 205 | 0.0 | 0.0 | 0.00 | 0.00 | 0.00 | 77 | 1014.3 |
| 20260830235002 | 72 | 205 | 0.0 | 0.0 | 0.00 | 0.00 | 0.00 | 76 | 1014.3 |
| 20260830234502 | 72 | 205 | 0.0 | 0.0 | 0.00 | 0.00 | 0.00 | 76 | 1014.3 |
| 20260830234002 | 72 | 205 | 0.0 | 0.0 | 0.00 | 0.00 | 0.00 | 76 | 1014.3 |
| 20260830233502 | 73 | 205 | 0.0 | 0.0 | 0.00 | 0.00 | 0.00 | 76 | 1014.3 |
| 20260830233003 | 73 | 196 | 0.0 | 0.0 | 0.00 | 0.00 | 0.00 | 75 | 1014.2 |
| 20260830232503 | 73 | 194 | 0.0 | 0.0 | 0.00 | 0.00 | 0.00 | 75 | 1014.3 |
| 20260830232002 | 73 | 194 | 0.0 | 0.0 | 0.00 | 0.00 | 0.00 | 74 | 1014.3 |
| 20260830231502 | 74 | 194 | 0.0 | 0.0 | 0.00 | 0.00 | 0.00 | 74 | 1014.3 |
| 20260830231003 | 74 | 194 | 0.0 | 0.0 | 0.00 | 0.00 | 0.00 | 74 | 1014.3 |
| 20260830230501 | 74 | 194 | 0.0 | 0.0 | 0.00 | 0.00 | 0.00 | 73 | 1014.3 |